Location: Colebrook
(42.0017°N, 73.0973°W)
Time: 14:14:39
(UTC-04:00)

Amateur Radio Satellites - All Passes

Search period start: 26 September 2017 13:44
Search period end: 27 September 2017 13:44
Location: Colebrook, 42.0017°N, 73.0973°W

Satellite Date Start Highest point End Downlink Frequencies (MHz)
Time Altitude Azimuth
AO-7 26 Sep 13:45:03 13:51:28 26° 53° (NE) 13:57:52 .
RS-15 26 Sep 13:58:25 14:10:32 79° 55° (NE) 14:21:55 29.354- 29.394
Oscar 19 26 Sep 14:02:10 14:07:11 50° 260° (W) 14:12:16 437.125/150
SO-50 26 Sep 14:05:00 14:09:27 61° 306° (NW) 14:13:55 436.795
50 SAT 26 Sep 14:09:47 14:13:05 68° 101° (ESE) 14:16:22 437.505
UKube-1 26 Sep 14:09:57 14:13:45 30° 97° (E) 14:17:31 .
Gurwin Techsat 1B 26 Sep 14:11:58 14:17:13 61° 259° (W) 14:22:30 435.225
NO-84 26 Sep 14:13:36 14:16:12 18° 336° (NNW) 14:18:39 435.350 FM
DX 1 26 Sep 14:23:08 14:27:28 67° 102° (ESE) 14:31:47 434.975-435.025
PCSat 26 Sep 14:34:15 14:39:41 83° 299° (WNW) 14:45:09 145.827
SPROUT 26 Sep 14:36:55 14:39:42 17° 295° (WNW) 14:42:29 437.525
YUBILEINY 26 Sep 14:46:14 14:51:27 17° 301° (WNW) 14:56:42 435.215
VELOX 1 26 Sep 15:02:24 15:04:41 14° 298° (WNW) 15:06:59 145.980
ITAMSAT 1 26 Sep 15:13:51 15:18:51 53° 71° (ENE) 15:23:53 435.822/435.867
AO-7 26 Sep 15:35:02 15:43:22 80° 253° (WSW) 15:51:45 .
ITUPSAT 1 26 Sep 15:39:19 15:43:41 33° 97° (E) 15:48:00 437.325
UKube-1 26 Sep 15:46:08 15:49:38 25° 293° (WNW) 15:53:07 .
SO-50 26 Sep 15:49:22 15:50:51 11° 327° (NNW) 15:52:18 436.795
DX 1 26 Sep 16:01:14 16:03:05 13° 299° (WNW) 16:04:56 434.975-435.025
RS-15 26 Sep 16:12:12 16:21:40 30° 258° (WSW) 16:30:47 29.354- 29.394
BEESAT 26 Sep 16:13:29 16:18:18 76° 103° (ESE) 16:23:04 436.000
MOZHAYETS 4 26 Sep 16:16:30 16:21:10 86° 100° (E) 16:25:48
PCSat 26 Sep 16:20:37 16:23:55 16° 320° (NW) 16:27:15 145.827
LilacSat-2 26 Sep 16:51:15 16:52:14 11° 63° (ENE) 16:53:14 437.200
CUBESAT XI-V 26 Sep 16:51:36 16:56:01 42° 98° (E) 17:00:21 437.345
ITAMSAT 1 26 Sep 16:55:01 16:58:37 19° 267° (W) 17:02:15 435.822/435.867
ITUPSAT 1 26 Sep 17:17:19 17:21:22 28° 294° (WNW) 17:25:24 437.325
DOVE 4 26 Sep 17:22:40 17:27:02 88° 249° (WSW) 17:31:16 437.250
HO-68 26 Sep 17:22:52 17:27:18 18° 53° (NE) 17:31:43 435.675
CUTE-I 26 Sep 17:25:53 17:30:24 29° 65° (ENE) 17:34:55 437.470
NO-84 26 Sep 17:31:34 17:33:24 14° 19° (NNE) 17:35:08 435.350 FM
XW-2D 26 Sep 17:32:15 17:35:38 30° 70° (ENE) 17:39:02 145.860 - 145.880
AO-7 26 Sep 17:32:52 17:37:19 15° 271° (W) 17:41:48 .
XW-2F 26 Sep 17:41:49 17:45:20 35° 72° (ENE) 17:48:51 145.980 - 146.000
XW-2B 26 Sep 17:44:27 17:48:04 40° 72° (ENE) 17:51:41 145.730 - 145.750
KKS-1 26 Sep 17:49:25 17:53:49 57° 101° (E) 17:58:11 437.445
BEESAT 26 Sep 17:53:10 17:55:26 13° 300° (WNW) 17:57:42 436.000
NUDT-PHONESAT 26 Sep 17:53:59 17:57:27 37° 72° (ENE) 18:00:56 437.300
MOZHAYETS 4 26 Sep 17:56:19 17:57:37 11° 300° (WNW) 17:58:54
STARS 26 Sep 18:04:31 18:08:31 33° 97° (E) 18:12:31 437.465
XW-2C 26 Sep 18:05:44 18:09:34 76° 76° (ENE) 18:13:27 145.795 - 145.815
CUTE 1.7 + AOD 2 26 Sep 18:19:27 18:22:46 22° 67° (ENE) 18:26:05 437.475
LilacSat-2 26 Sep 18:22:08 18:25:58 62° 260° (W) 18:29:50 437.200
KAITUO 1B 26 Sep 18:27:33 18:31:21 78° 256° (WSW) 18:35:10 145.475/437.950
CUBESAT XI-V 26 Sep 18:29:40 18:33:04 20° 295° (WNW) 18:36:26 437.345
Tancredo 1 26 Sep 18:41:24 18:44:03 86° 325° (NW) 18:46:44 437.200
BEESAT 3 26 Sep 18:41:57 18:45:41 38° 116° (ESE) 18:49:27 437.485
XW-2A 26 Sep 18:50:23 18:52:35 16° 67° (ENE) 18:54:47 145.665 - 145.685
BEESAT 2 26 Sep 18:58:25 19:01:08 18° 111° (ESE) 19:03:53 435.950
ISS 26 Sep 19:02:09 19:04:36 20° 133° (SE) 19:07:04 437.550
CUTE-I 26 Sep 19:05:25 19:10:18 37° 263° (W) 19:15:12 437.470
HO-68 26 Sep 19:06:51 19:13:59 84° 73° (ENE) 19:21:12 435.675
XW-2D 26 Sep 19:07:02 19:09:50 19° 266° (W) 19:12:38 145.860 - 145.880
NO-84 26 Sep 19:08:11 19:11:17 76° 41° (NE) 19:14:10 435.350 FM
XW-2F 26 Sep 19:17:07 19:19:33 16° 268° (W) 19:22:00 145.980 - 146.000
SEEDS 26 Sep 19:19:22 19:23:33 61° 74° (ENE) 19:27:44 437.485
XW-2B 26 Sep 19:20:15 19:22:24 14° 268° (W) 19:24:34 145.730 - 145.750
CUBEBUG 2 26 Sep 19:22:30 19:26:42 59° 74° (ENE) 19:31:05 437.445
UWE-3 26 Sep 19:22:32 19:26:28 34° 70° (ENE) 19:30:32 435.000/436.395/437.385
KKS-1 26 Sep 19:27:21 19:29:53 15° 298° (WNW) 19:32:26 437.445
NUDT-PHONESAT 26 Sep 19:29:16 19:31:27 15° 268° (W) 19:33:39 437.300
AO-85 26 Sep 19:30:58 19:34:35 37° 117° (ESE) 19:38:14 145.980
AAUSAT CUBESAT 2 26 Sep 19:32:04 19:35:53 37° 71° (ENE) 19:39:43 437.432
nSIGHT-1 26 Sep 19:34:11 19:37:16 45° 139° (SE) 19:40:22 .
STARS 26 Sep 19:41:11 19:44:41 24° 294° (WNW) 19:48:11 437.465
STRAND 1 26 Sep 19:42:06 19:46:40 31° 96° (E) 19:51:11 437.568
Oscar 11 26 Sep 19:52:55 19:56:30 25° 68° (ENE) 20:00:05 .
CUTE 1.7 + AOD 2 26 Sep 19:54:32 19:58:23 33° 263° (W) 20:02:17 437.475
AO-73 26 Sep 19:57:15 20:01:19 39° 71° (ENE) 20:05:30 145.935
ZACube-1 26 Sep 20:02:03 20:06:16 50° 73° (ENE) 20:10:37 437.345
Tancredo 1 26 Sep 20:17:00 20:18:46 16° 343° (NNW) 20:20:34 437.200
BEESAT 3 26 Sep 20:20:09 20:23:21 22° 314° (NW) 20:26:36 437.485
XW-2A 26 Sep 20:22:04 20:25:04 28° 263° (W) 20:28:05 145.665 - 145.685
DELFI C3 26 Sep 20:30:46 20:32:47 14° 65° (ENE) 20:34:47 145.870
BEESAT 2 26 Sep 20:34:43 20:38:33 43° 308° (NW) 20:42:27 435.950
ISS 26 Sep 20:37:38 20:40:50 50° 330° (NNW) 20:44:03 437.550
Max Valier Satellite 26 Sep 20:50:27 20:52:44 16° 66° (ENE) 20:55:02 145.860
SO-50 26 Sep 20:56:03 20:59:24 19° 42° (NE) 21:02:45 436.795
HO-68 26 Sep 20:58:03 21:02:31 17° 270° (W) 21:07:02 435.675
SEEDS 26 Sep 20:58:11 20:59:37 11° 271° (W) 21:01:02 437.485
UWE-3 26 Sep 20:59:38 21:03:00 22° 267° (W) 21:06:27 435.000/436.395/437.385
CUBEBUG 2 26 Sep 21:01:55 21:03:45 12° 271° (W) 21:05:36 437.445
AAUSAT CUBESAT 2 26 Sep 21:08:34 21:11:27 18° 267° (W) 21:14:21 437.432
nSIGHT-1 26 Sep 21:10:50 21:13:41 28° 337° (NNW) 21:16:33 .
AO-85 26 Sep 21:12:05 21:15:05 21° 315° (NW) 21:18:09 145.980
STRAND 1 26 Sep 21:21:13 21:25:48 33° 293° (WNW) 21:30:22 437.568
Oscar 11 26 Sep 21:28:42 21:32:31 29° 264° (W) 21:36:21 .
AO-73 26 Sep 21:34:33 21:37:42 19° 268° (W) 21:40:55 145.935
PCSat 26 Sep 21:39:38 21:42:59 16° 40° (NE) 21:46:20 145.827
ZACube-1 26 Sep 21:40:15 21:42:51 15° 270° (W) 21:45:29 437.345
EO-88 26 Sep 21:41:45 21:45:17 47° 73° (ENE) 21:48:50 145.990 - 145.960
UNISAT 6 26 Sep 21:51:11 21:54:42 21° 93° (E) 21:58:12 437.425
Tancredo 1 26 Sep 21:53:09 21:54:01 11° 3° (N) 21:54:52 437.200
FO-29 26 Sep 22:00:50 22:06:27 74° 102° (ESE) 22:12:46 435.910
DELFI C3 26 Sep 22:03:18 22:07:07 48° 261° (W) 22:10:57 145.870
TIGRISAT 26 Sep 22:13:21 22:17:33 31° 96° (E) 22:21:44 435.000
ISS 26 Sep 22:15:35 22:17:54 17° 350° (N) 22:20:11 437.550
Max Valier Satellite 26 Sep 22:22:49 22:26:15 36° 262° (W) 22:29:44 145.860
LO-87 26 Sep 22:27:27 22:30:07 21° 69° (ENE) 22:32:49 145.935 - 145.965
ESTCUBE 1 26 Sep 22:33:10 22:36:37 22° 66° (ENE) 22:40:04 437.505/2401.250
SO-50 26 Sep 22:35:41 22:40:15 64° 240° (WSW) 22:44:51 436.795
nSIGHT-1 26 Sep 22:48:48 22:50:48 15° 357° (N) 22:52:47 .
YUBILEINY 26 Sep 22:54:07 23:02:38 53° 76° (ENE) 23:11:07 435.215
EO-88 26 Sep 23:18:05 23:19:11 11° 269° (W) 23:20:19 145.990 - 145.960
PRISM 26 Sep 23:18:57 23:23:02 86° 103° (ESE) 23:27:05 437.425
PCSat 26 Sep 23:21:46 23:27:14 84° 60° (ENE) 23:32:38 145.827
Tancredo 1 26 Sep 23:26:55 23:29:08 23° 23° (NNE) 23:31:21 437.200
UNISAT 6 26 Sep 23:27:08 23:31:33 42° 289° (WNW) 23:35:58 437.425
AIST 2D 26 Sep 23:32:10 23:35:05 24° 95° (E) 23:37:57 435.315
POLYITAN 1 26 Sep 23:34:53 23:35:53 11° 89° (E) 23:36:53 437.675
EO-79 26 Sep 23:37:38 23:39:09 12° 90° (E) 23:40:41 145.935-145.965
FO-29 26 Sep 23:47:35 23:51:05 17° 298° (WNW) 23:54:47 435.910
TIGRISAT 26 Sep 23:50:08 23:54:06 28° 292° (WNW) 23:58:04 435.000
QB50P2 26 Sep 23:51:15 23:54:19 19° 93° (E) 23:57:21 145.880/145.840
ISS 26 Sep 23:53:01 23:55:18 17° 10° (N) 23:57:34 437.550
SPROUT 26 Sep 23:53:30 23:57:21 35° 70° (ENE) 00:01:15 437.525
LO-87 27 Sep 00:00:33 00:03:25 23° 265° (W) 00:06:19 145.935 - 145.965
ESTCUBE 1 27 Sep 00:08:57 00:13:10 38° 262° (W) 00:17:25 437.505/2401.250
VELOX 1 27 Sep 00:21:37 00:25:54 54° 73° (ENE) 00:30:12 145.980
NANOSAT C BR1 27 Sep 00:22:18 00:26:10 33° 97° (E) 00:30:00 145.865
nSIGHT-1 27 Sep 00:25:23 00:28:00 22° 18° (NNE) 00:30:36 .
O/OREOS (USA 219) 27 Sep 00:38:19 00:38:49 10° 96° (E) 00:39:18 437.305
50 SAT 27 Sep 00:40:05 00:42:43 22° 69° (ENE) 00:45:21 437.505
DUCHIFAT 1 27 Sep 00:48:25 00:52:38 57° 101° (E) 00:56:49 145.980
YUBILEINY 27 Sep 00:51:29 00:59:02 34° 276° (W) 01:06:36 435.215
Tancredo 1 27 Sep 01:01:05 01:03:37 39° 220° (SW) 01:06:08 437.200
UKube-1 27 Sep 01:04:42 01:08:20 27° 68° (ENE) 01:11:59 .
AIST 2D 27 Sep 01:05:31 01:08:07 20° 291° (WNW) 01:10:42 435.315
PCSat 27 Sep 01:07:26 01:09:50 13° 257° (WSW) 01:12:15 145.827
POLYITAN 1 27 Sep 01:07:49 01:12:06 68° 286° (WNW) 01:16:21 437.675
BUGSAT 1 27 Sep 01:09:31 01:13:03 25° 95° (E) 01:16:34 437.445
EO-79 27 Sep 01:11:03 01:15:18 62° 286° (WNW) 01:19:31 145.935-145.965
DX 1 27 Sep 01:18:39 01:22:54 60° 74° (ENE) 01:27:11 434.975-435.025
QB50P2 27 Sep 01:26:15 01:30:13 38° 289° (WNW) 01:34:11 145.880/145.840
ISS 27 Sep 01:29:10 01:32:22 47° 29° (NNE) 01:35:34 437.550
SPROUT 27 Sep 01:30:14 01:33:21 20° 267° (W) 01:36:29 437.525
BEESAT 27 Sep 01:46:21 01:47:42 11° 58° (ENE) 01:49:03 436.000
NANOSAT C BR1 27 Sep 01:58:21 02:01:40 22° 293° (WNW) 02:04:59 145.865
VELOX 1 27 Sep 02:00:23 02:02:40 14° 269° (W) 02:04:57 145.980
nSIGHT-1 27 Sep 02:01:23 02:04:38 82° 216° (SW) 02:07:53 .
M-CUBED/EXP-1 PRIME 27 Sep 02:08:20 02:11:37 70° 289° (WNW) 02:14:51 437.505
50 SAT 27 Sep 02:12:46 02:15:07 18° 265° (W) 02:17:29 437.505
O/OREOS (USA 219) 27 Sep 02:13:00 02:17:31 76° 296° (WNW) 02:22:04 437.305
Oscar 19 27 Sep 02:13:08 02:18:13 55° 101° (E) 02:23:13 437.125/150
DUCHIFAT 1 27 Sep 02:25:36 02:27:48 14° 297° (WNW) 02:30:00 145.980
Gurwin Techsat 1B 27 Sep 02:27:41 02:32:53 51° 100° (E) 02:38:03 435.225
UKube-1 27 Sep 02:40:38 02:44:17 27° 264° (W) 02:47:57 .
BUGSAT 1 27 Sep 02:44:44 02:48:21 28° 291° (WNW) 02:51:57 437.445
ITUPSAT 1 27 Sep 02:46:13 02:50:40 41° 69° (ENE) 02:55:10 437.325
DX 1 27 Sep 02:57:40 02:59:28 12° 269° (W) 03:01:15 434.975-435.025
BEESAT 3 27 Sep 02:58:15 03:01:42 27° 48° (NE) 03:05:05 437.485
ISS 27 Sep 03:06:03 03:08:38 22° 226° (SW) 03:11:13 437.550
BEESAT 2 27 Sep 03:15:01 03:17:33 16° 41° (NE) 03:20:03 435.950
MOZHAYETS 4 27 Sep 03:18:15 03:22:53 84° 75° (ENE) 03:27:33
BEESAT 27 Sep 03:19:56 03:24:42 90° 115° (ESE) 03:29:31 436.000
ITAMSAT 1 27 Sep 03:27:14 03:30:43 18° 92° (E) 03:34:12 435.822/435.867
AO-7 27 Sep 03:36:39 03:44:00 34° 97° (E) 03:51:17 .
Oscar 19 27 Sep 03:53:27 03:57:05 20° 298° (WNW) 04:00:42 437.125/150
CUBESAT XI-V 27 Sep 03:54:53 03:59:20 43° 71° (ENE) 04:03:46 437.345
AO-85 27 Sep 04:00:35 04:04:48 41° 52° (NE) 04:09:18 145.980
Gurwin Techsat 1B 27 Sep 04:08:28 04:12:28 22° 297° (WNW) 04:16:26 435.225
RS-15 27 Sep 04:20:53 04:32:22 50° 110° (ESE) 04:43:55 29.354- 29.394
ITUPSAT 1 27 Sep 04:24:58 04:28:38 22° 266° (W) 04:32:19 437.325
BEESAT 3 27 Sep 04:35:47 04:39:13 28° 246° (WSW) 04:42:36 437.485
KKS-1 27 Sep 04:47:31 04:51:49 54° 72° (ENE) 04:56:09 437.445
BEESAT 2 27 Sep 04:51:41 04:55:43 65° 240° (WSW) 04:59:39 435.950
STARS 27 Sep 05:01:23 05:05:13 31° 69° (ENE) 05:09:04 437.465
ITAMSAT 1 27 Sep 05:05:25 05:10:32 57° 289° (WNW) 05:15:38 435.822/435.867
DOVE 4 27 Sep 05:20:52 05:24:17 22° 95° (E) 05:27:49 437.250
AO-7 27 Sep 05:29:01 05:37:03 56° 296° (WNW) 05:45:02 .
CUBESAT XI-V 27 Sep 05:33:28 05:36:52 20° 267° (W) 05:40:16 437.345
AO-85 27 Sep 05:41:23 05:45:02 24° 246° (WSW) 05:48:54 145.980
LilacSat-2 27 Sep 05:56:23 05:58:17 13° 91° (E) 06:00:11 437.200
KKS-1 27 Sep 06:26:23 06:28:42 14° 269° (W) 06:31:02 437.445
RS-15 27 Sep 06:32:44 06:44:47 57° 313° (NW) 06:56:52 29.354- 29.394
HO-68 27 Sep 06:36:19 06:40:10 15° 88° (E) 06:44:00 435.675
XW-2D 27 Sep 06:37:54 06:41:31 40° 98° (E) 06:45:04 145.860 - 145.880
STARS 27 Sep 06:38:03 06:41:33 24° 265° (W) 06:45:06 437.465
XW-2F 27 Sep 06:47:05 06:50:46 48° 99° (E) 06:54:23 145.980 - 146.000
XW-2B 27 Sep 06:50:18 06:54:03 56° 100° (E) 06:57:45 145.730 - 145.750
NUDT-PHONESAT 27 Sep 06:57:10 07:00:47 47° 99° (E) 07:04:22 437.300
DOVE 4 27 Sep 06:58:09 07:02:01 33° 289° (WNW) 07:06:03 437.250
STRAND 1 27 Sep 06:58:13 07:03:03 46° 70° (ENE) 07:07:55 437.568
XW-2C 27 Sep 07:11:52 07:15:40 75° 284° (WNW) 07:19:26 145.795 - 145.815
CUBEBUG 2 27 Sep 07:14:07 07:16:33 14° 90° (E) 07:18:58 437.445
CUTE-I 27 Sep 07:21:19 07:26:41 85° 103° (ESE) 07:32:03 437.470
AO-7 27 Sep 07:24:28 07:28:01 13° 317° (NW) 07:31:34 .
LilacSat-2 27 Sep 07:29:09 07:32:47 42° 287° (WNW) 07:36:22 437.200
KAITUO 1B 27 Sep 07:32:06 07:35:46 56° 287° (WNW) 07:39:24 145.475/437.950
CUTE 1.7 + AOD 2 27 Sep 07:38:31 07:42:30 39° 98° (E) 07:46:26 437.475
XW-2A 27 Sep 07:43:46 07:45:51 15° 93° (E) 07:47:56 145.665 - 145.685
ZACube-1 27 Sep 07:53:16 07:53:30 10° 87° (E) 07:53:44 437.345
XW-2D 27 Sep 08:13:11 08:15:20 15° 294° (WNW) 08:17:28 145.860 - 145.880
FO-29 27 Sep 08:14:56 08:19:38 30° 67° (ENE) 08:24:07 435.910
HO-68 27 Sep 08:21:35 08:28:50 86° 106° (ESE) 08:36:03 435.675
XW-2F 27 Sep 08:22:46 08:24:26 13° 296° (WNW) 08:26:07 145.980 - 146.000
XW-2B 27 Sep 08:26:32 08:27:43 11° 297° (WNW) 08:28:53 145.730 - 145.750
NUDT-PHONESAT 27 Sep 08:32:40 08:34:13 12° 296° (WNW) 08:35:46 437.300
SEEDS 27 Sep 08:38:08 08:42:18 70° 285° (WNW) 08:46:25 437.485
STRAND 1 27 Sep 08:38:34 08:42:25 22° 267° (W) 08:46:19 437.568
UWE-3 27 Sep 08:47:12 08:51:54 74° 102° (ESE) 08:56:33 435.000/436.395/437.385
AAUSAT CUBESAT 2 27 Sep 08:48:30 08:52:36 66° 101° (E) 08:56:40 437.432
CUBEBUG 2 27 Sep 08:48:50 08:53:32 64° 286° (WNW) 08:58:14 437.445
UNISAT 6 27 Sep 08:50:49 08:53:50 18° 64° (ENE) 08:56:54 437.425
RS-15 27 Sep 08:50:56 09:00:49 26° 344° (NNW) 09:10:32 29.354- 29.394
CUTE-I 27 Sep 09:03:20 09:06:00 14° 301° (WNW) 09:08:41 437.470
TIGRISAT 27 Sep 09:12:29 09:16:12 27° 68° (ENE) 09:19:59 435.000
Oscar 11 27 Sep 09:14:47 09:18:59 47° 99° (E) 09:23:09 .
CUTE 1.7 + AOD 2 27 Sep 09:15:05 09:18:01 19° 294° (WNW) 09:20:57 437.475
XW-2A 27 Sep 09:15:38 09:18:37 28° 289° (WNW) 09:21:35 145.665 - 145.685
AO-73 27 Sep 09:20:20 09:24:56 81° 103° (ESE) 09:29:27 145.935
ZACube-1 27 Sep 09:25:42 09:30:20 80° 283° (WNW) 09:34:51 437.345
DELFI C3 27 Sep 09:40:16 09:43:05 19° 93° (E) 09:45:54 145.870
Max Valier Satellite 27 Sep 09:52:38 09:55:20 19° 93° (E) 09:58:01 145.860
FO-29 27 Sep 09:59:42 10:04:42 34° 263° (W) 10:09:26 435.910
PRISM 27 Sep 10:08:04 10:12:06 62° 73° (ENE) 10:16:08 437.425
AIST 2D 27 Sep 10:08:49 10:09:34 11° 64° (ENE) 10:10:18 435.315
HO-68 27 Sep 10:10:46 10:15:40 20° 305° (NW) 10:20:35 435.675
UWE-3 27 Sep 10:25:35 10:27:43 13° 298° (WNW) 10:29:50 435.000/436.395/437.385
UNISAT 6 27 Sep 10:26:00 10:30:10 44° 262° (W) 10:34:29 437.425
AAUSAT CUBESAT 2 27 Sep 10:26:12 10:27:29 11° 298° (WNW) 10:28:46 437.432
EO-88 27 Sep 10:43:16 10:46:53 59° 100° (E) 10:50:29 145.990 - 145.960
O/OREOS (USA 219) 27 Sep 10:43:52 10:47:38 24° 57° (ENE) 10:51:22 437.305
QB50P2 27 Sep 10:44:46 10:47:16 16° 64° (ENE) 10:49:48 145.880/145.840
TIGRISAT 27 Sep 10:49:03 10:52:48 28° 265° (W) 10:56:39 435.000
Oscar 11 27 Sep 10:51:59 10:54:44 17° 296° (WNW) 10:57:27 .
AO-73 27 Sep 10:58:57 11:00:27 12° 299° (WNW) 11:01:58 145.935
RS-15 27 Sep 11:08:47 11:18:48 28° 20° (NNE) 11:28:26 29.354- 29.394
DELFI C3 27 Sep 11:14:25 11:17:54 31° 289° (WNW) 11:21:21 145.870
NANOSAT C BR1 27 Sep 11:14:44 11:18:12 26° 68° (ENE) 11:21:42 145.865
M-CUBED/EXP-1 PRIME 27 Sep 11:21:39 11:23:44 14° 60° (ENE) 11:25:44 437.505
Max Valier Satellite 27 Sep 11:25:57 11:29:11 28° 290° (WNW) 11:32:25 145.860
LO-87 27 Sep 11:26:25 11:29:24 24° 95° (E) 11:32:22 145.935 - 145.965
AIST 2D 27 Sep 11:38:49 11:42:17 51° 261° (W) 11:45:46 435.315
DUCHIFAT 1 27 Sep 11:40:14 11:44:10 42° 72° (ENE) 11:48:10 145.980
PRISM 27 Sep 11:46:57 11:47:45 10° 270° (W) 11:48:33 437.425
Oscar 19 27 Sep 11:55:06 11:56:51 12° 57° (ENE) 11:58:36 437.125/150
YUBILEINY 27 Sep 11:55:12 12:03:40 60° 91° (E) 12:12:09 435.215
BUGSAT 1 27 Sep 12:00:03 12:02:52 19° 66° (ENE) 12:05:44 437.445
POLYITAN 1 27 Sep 12:00:09 12:04:21 88° 257° (WSW) 12:08:38 437.675
NO-84 27 Sep 12:00:14 12:04:14 75° 137° (SE) 12:07:55 435.350 FM
ESTCUBE 1 27 Sep 12:00:37 12:04:53 41° 98° (E) 12:09:07 437.505/2401.250
EO-79 27 Sep 12:03:13 12:07:25 82° 257° (WSW) 12:11:41 145.935-145.965
Gurwin Techsat 1B 27 Sep 12:13:19 12:15:17 12° 57° (ENE) 12:17:16 435.225
QB50P2 27 Sep 12:18:34 12:22:39 49° 260° (W) 12:26:47 145.880/145.840
O/OREOS (USA 219) 27 Sep 12:22:53 12:27:07 37° 255° (WSW) 12:31:21 437.305
NANOSAT C BR1 27 Sep 12:50:14 12:53:50 27° 265° (W) 12:57:26 145.865
SO-50 27 Sep 12:50:20 12:54:26 36° 116° (ESE) 12:58:33 436.795
AO-7 27 Sep 12:50:20 12:52:55 12° 41° (NE) 12:55:30 .
M-CUBED/EXP-1 PRIME 27 Sep 12:53:42 12:57:49 55° 254° (WSW) 13:01:38 437.505
LO-87 27 Sep 12:59:54 13:02:42 21° 291° (WNW) 13:05:30 145.935 - 145.965
SPROUT 27 Sep 13:13:49 13:18:07 66° 102° (ESE) 13:22:22 437.525
DUCHIFAT 1 27 Sep 13:17:23 13:20:01 16° 268° (W) 13:22:42 145.980
Oscar 19 27 Sep 13:30:08 13:35:20 83° 75° (ENE) 13:40:34 437.125/150
50 SAT 27 Sep 13:31:49 13:34:17 19° 95° (E) 13:36:44 437.505
BUGSAT 1 27 Sep 13:34:14 13:37:58 36° 263° (W) 13:41:44 437.445
ESTCUBE 1 27 Sep 13:38:09 13:41:23 20° 295° (WNW) 13:44:37 437.505/2401.250
